Starlink 30274

operational
NORAD ID: 57672 Int'l Des: 2023-124 Owner: SPXS Country: US Constellation: starlink
LEOCIRCULAR

Über Starlink 30274

Beschreibung wird geladen...

Live-Position

3D-Globus wird geladen...

Nächste Überflüge

Höhenverlauf

Altitude vs Time

uPlot chart will show altitude changes over time

Zweizeiliger Elementsatz

1 57672U 23124K 25260.06398970 .00001363 00000-0 58191-4 0 9997
2 57672 53.1620 293.4253 0003446 120.6068 239.5274 15.30189725116982
Epoch: 17. Sept. 2025 • Age: 25 hours

Aktueller Status

Höhe 477.6 km
Geschwindigkeit 7.63 km/s
Subsatellitenpunkt -0.68°S, 108.4°W
Startdatum 22. Aug. 2023
Alter 2 years
Typ internet

Technische Details

Klassifizierung Payload
Masse 730.00 kg
Trockenmasse 700.00 kg
Gesamtmasse 730.00 kg
Länge 0.30 m
Durchmesser 4.10 m
Spannweite 29.00 m
Form Box + pan
Hersteller SPXS
Bus-Typ Starlink V2M
Phasenstatus In Orbit
Besitzer/Staat SPXS/US

Große Konstellationen

Loading constellations...